| time (UTC) | temp C | wind direction | speed KPH | gust KPH | rain 1hr cm | rain 24hr cm | rain mn cm | humidity % | barometer mb |
| 20260505124554 | 2 | 300 | 3.2 | 11.3 | 0.00 | 0.00 | 0.00 | 63 | 1016.9 |
| 20260505124051 | 2 | 284 | 4.8 | 9.7 | 0.00 | 0.00 | 0.00 | 63 | 1016.7 |
| 20260505123055 | 2 | 301 | 1.6 | 6.4 | 0.00 | 0.00 | 0.00 | 63 | 1016.7 |
| 20260505122556 | 2 | 293 | 1.6 | 8.0 | 0.00 | 0.00 | 0.00 | 63 | 1016.5 |
| 20260505122053 | 2 | 313 | 1.6 | 6.4 | 0.00 | 0.00 | 0.00 | 63 | 1016.6 |
| 20260505121612 | 2 | 318 | 1.6 | 8.0 | 0.00 | 0.00 | 0.00 | 63 | 1016.6 |
| 20260505121052 | 2 | 302 | 1.6 | 8.0 | 0.00 | 0.00 | 0.00 | 63 | 1016.6 |
| 20260505120552 | 2 | 301 | 3.2 | 9.7 | 0.00 | 0.00 | 0.00 | 62 | 1016.4 |
| 20260505120054 | 2 | 317 | 3.2 | 12.9 | 0.00 | 0.00 | 0.00 | 62 | 1016.4 |
| 20260505115555 | 2 | 304 | 1.6 | 12.9 | 0.00 | 0.00 | 0.00 | 62 | 1016.5 |
| 20260505115052 | 1 | 311 | 1.6 | 6.4 | 0.00 | 0.00 | 0.00 | 62 | 1016.4 |
| 20260505114550 | 1 | 309 | 1.6 | 6.4 | 0.00 | 0.00 | 0.00 | 62 | 1016.4 |
| 20260505114050 | 1 | 311 | 1.6 | 8.0 | 0.00 | 0.00 | 0.00 | 62 | 1016.3 |
| 20260505113047 | 1 | 317 | 3.2 | 8.0 | 0.00 | 0.00 | 0.00 | 62 | 1016.2 |
| 20260505112547 | 1 | 278 | 3.2 | 6.4 | 0.00 | 0.00 | 0.00 | 62 | 1016.2 |
| 20260505112046 | 1 | 301 | 3.2 | 6.4 | 0.00 | 0.00 | 0.00 | 62 | 1016.1 |
| 20260505111547 | 1 | 290 | 3.2 | 6.4 | 0.00 | 0.00 | 0.00 | 62 | 1015.8 |
| 20260505111046 | 1 | 288 | 1.6 | 6.4 | 0.00 | 0.00 | 0.00 | 62 | 1016.1 |
| 20260505110545 | 1 | 275 | 1.6 | 11.3 | 0.00 | 0.00 | 0.00 | 62 | 1016.1 |
| 20260505102039 | 1 | 284 | 3.2 | 4.8 | 0.00 | 0.00 | 0.00 | 60 | 1016.0 |
| 20260505101542 | 2 | 298 | 1.6 | 4.8 | 0.00 | 0.00 | 0.00 | 59 | 1015.8 |
| 20260505101037 | 2 | 302 | 1.6 | 6.4 | 0.00 | 0.00 | 0.00 | 58 | 1015.8 |
| 20260505100538 | 2 | 304 | 1.6 | 6.4 | 0.00 | 0.00 | 0.00 | 58 | 1015.7 |
| 20260505100036 | 2 | 302 | 3.2 | 6.4 | 0.00 | 0.00 | 0.00 | 58 | 1015.9 |
| 20260505095536 | 2 | 297 | 3.2 | 6.4 | 0.00 | 0.00 | 0.00 | 57 | 1015.9 |
| 20260505095036 | 2 | 312 | 3.2 | 8.0 | 0.00 | 0.00 | 0.00 | 57 | 1015.7 |
| 20260505094537 | 2 | 299 | 3.2 | 8.0 | 0.00 | 0.00 | 0.00 | 57 | 1015.7 |
| 20260505094033 | 2 | 308 | 4.8 | 12.9 | 0.00 | 0.00 | 0.00 | 56 | 1015.7 |
| 20260505093040 | 2 | 316 | 3.2 | 9.7 | 0.00 | 0.00 | 0.00 | 56 | 1015.7 |
| 20260505092533 | 2 | 298 | 3.2 | 9.7 | 0.00 | 0.00 | 0.00 | 56 | 1015.6 |
| 20260505092032 | 2 | 316 | 3.2 | 9.7 | 0.00 | 0.00 | 0.00 | 56 | 1015.6 |
| 20260505091532 | 2 | 307 | 3.2 | 6.4 | 0.00 | 0.00 | 0.00 | 56 | 1015.6 |
| 20260505091035 | 2 | 311 | 3.2 | 6.4 | 0.00 | 0.00 | 0.00 | 56 | 1015.7 |
| 20260505090530 | 2 | 308 | 3.2 | 11.3 | 0.00 | 0.00 | 0.00 | 56 | 1015.6 |
| 20260505090043 | 2 | 308 | 3.2 | 11.3 | 0.00 | 0.00 | 0.00 | 55 | 1015.8 |
| 20260505085531 | 2 | 313 | 4.8 | 12.9 | 0.00 | 0.00 | 0.00 | 55 | 1015.7 |
| 20260505085032 | 2 | 313 | 3.2 | 12.9 | 0.00 | 0.00 | 0.00 | 55 | 1015.8 |
| 20260505084530 | 2 | 314 | 4.8 | 11.3 | 0.00 | 0.00 | 0.00 | 55 | 1015.7 |
| 20260505084028 | 2 | 290 | 3.2 | 8.0 | 0.00 | 0.00 | 0.00 | 55 | 1015.6 |
| 20260505083037 | 2 | 302 | 3.2 | 9.7 | 0.00 | 0.00 | 0.00 | 55 | 1015.6 |
| 20260505082533 | 2 | 309 | 4.8 | 12.9 | 0.00 | 0.00 | 0.00 | 55 | 1015.6 |
| 20260505082033 | 2 | 295 | 4.8 | 12.9 | 0.00 | 0.00 | 0.00 | 55 | 1015.6 |
| 20260505081539 | 2 | 311 | 1.6 | 12.9 | 0.00 | 0.00 | 0.00 | 55 | 1015.6 |
| 20260505081034 | 2 | 307 | 3.2 | 12.9 | 0.00 | 0.00 | 0.00 | 55 | 1015.5 |
| 20260505080531 | 2 | 312 | 3.2 | 8.0 | 0.00 | 0.00 | 0.00 | 55 | 1015.5 |
| 20260505080031 | 2 | 293 | 3.2 | 8.0 | 0.00 | 0.00 | 0.00 | 55 | 1015.6 |
| 20260505075532 | 2 | 313 | 1.6 | 6.4 | 0.00 | 0.00 | 0.00 | 55 | 1015.5 |
| 20260505075030 | 2 | 310 | 3.2 | 6.4 | 0.00 | 0.00 | 0.00 | 54 | 1015.5 |
| 20260505074530 | 2 | 302 | 3.2 | 9.7 | 0.00 | 0.00 | 0.00 | 54 | 1015.6 |
| 20260505074029 | 2 | 299 | 1.6 | 9.7 | 0.00 | 0.00 | 0.00 | 54 | 1015.3 |
| 20260505073035 | 2 | 305 | 1.6 | 9.7 | 0.00 | 0.00 | 0.00 | 54 | 1015.4 |
| 20260505072524 | 2 | 304 | 1.6 | 9.7 | 0.00 | 0.00 | 0.00 | 54 | 1015.4 |
| 20260505072023 | 2 | 314 | 1.6 | 14.5 | 0.00 | 0.00 | 0.00 | 54 | 1015.5 |
| 20260505071524 | 2 | 329 | 4.8 | 14.5 | 0.00 | 0.00 | 0.00 | 54 | 1015.4 |
| 20260505071023 | 2 | 305 | 3.2 | 11.3 | 0.00 | 0.00 | 0.00 | 54 | 1015.5 |
| 20260505070525 | 2 | 313 | 3.2 | 9.7 | 0.00 | 0.00 | 0.00 | 54 | 1015.5 |
| 20260505070022 | 2 | 312 | 3.2 | 8.0 | 0.00 | 0.00 | 0.00 | 54 | 1015.4 |
| 20260505065520 | 2 | 303 | 1.6 | 9.7 | 0.00 | 0.00 | 0.00 | 54 | 1015.4 |
| 20260505065021 | 2 | 300 | 3.2 | 11.3 | 0.00 | 0.00 | 0.00 | 54 | 1015.6 |
| 20260505064524 | 2 | 309 | 3.2 | 9.7 | 0.00 | 0.00 | 0.00 | 54 | 1015.7 |
| 20260505064018 | 2 | 303 | 3.2 | 12.9 | 0.00 | 0.00 | 0.00 | 54 | 1015.6 |
| 20260505063620 | 2 | 298 | 3.2 | 9.7 | 0.00 | 0.00 | 0.00 | 55 | 1015.5 |
| 20260505063017 | 2 | 321 | 1.6 | 14.5 | 0.00 | 0.00 | 0.00 | 55 | 1015.5 |
| 20260505062523 | 2 | 303 | 1.6 | 14.5 | 0.00 | 0.00 | 0.00 | 55 | 1015.6 |
| 20260505062016 | 2 | 286 | 1.6 | 8.0 | 0.00 | 0.00 | 0.00 | 56 | 1015.4 |
| 20260505061515 | 2 | 319 | 0.0 | 4.8 | 0.00 | 0.00 | 0.00 | 56 | 1015.4 |
| 20260505061018 | 2 | 319 | 0.0 | 6.4 | 0.00 | 0.00 | 0.00 | 56 | 1015.4 |
| 20260505060514 | 2 | 321 | 3.2 | 6.4 | 0.00 | 0.00 | 0.00 | 56 | 1015.2 |
| 20260505060025 | 2 | 333 | 0.0 | 4.8 | 0.00 | 0.00 | 0.00 | 56 | 1015.2 |
| 20260505055513 | 2 | 342 | 0.0 | 4.8 | 0.00 | 0.00 | 0.00 | 56 | 1015.2 |
| 20260505055014 | 2 | 342 | 1.6 | 4.8 | 0.00 | 0.00 | 0.00 | 55 | 1015.2 |
| 20260505054525 | 2 | 341 | 1.6 | 4.8 | 0.00 | 0.00 | 0.00 | 55 | 1015.2 |
| 20260505054012 | 2 | 341 | 1.6 | 4.8 | 0.00 | 0.00 | 0.00 | 55 | 1015.2 |
| 20260505053012 | 2 | 341 | 1.6 | 4.8 | 0.00 | 0.00 | 0.00 | 55 | 1015.2 |
| 20260505052511 | 2 | 341 | 1.6 | 4.8 | 0.00 | 0.00 | 0.00 | 55 | 1015.1 |
| 20260505052013 | 2 | 346 | 1.6 | 6.4 | 0.00 | 0.00 | 0.00 | 54 | 1015.1 |
| 20260505051510 | 2 | 355 | 1.6 | 4.8 | 0.00 | 0.00 | 0.00 | 54 | 1015.2 |
| 20260505051010 | 2 | 355 | 0.0 | 3.2 | 0.00 | 0.00 | 0.00 | 54 | 1015.1 |
| 20260505050515 | 2 | 355 | 0.0 | 4.8 | 0.00 | 0.00 | 0.00 | 54 | 1015.0 |
| 20260505041506 | 3 | 16 | 6.4 | 14.5 | 0.00 | 0.00 | 0.00 | 51 | 1014.6 |
| 20260505041004 | 3 | 5 | 4.8 | 14.5 | 0.00 | 0.00 | 0.00 | 51 | 1014.5 |
| 20260505040503 | 3 | 11 | 6.4 | 12.9 | 0.00 | 0.00 | 0.00 | 52 | 1014.4 |
| 20260505040002 | 3 | 360 | 4.8 | 16.1 | 0.00 | 0.00 | 0.00 | 51 | 1014.4 |
| 20260505035505 | 3 | 10 | 6.4 | 14.5 | 0.00 | 0.00 | 0.00 | 51 | 1014.3 |
| 20260505035101 | 3 | 355 | 6.4 | 14.5 | 0.00 | 0.00 | 0.00 | 50 | 1014.2 |
| 20260505034559 | 3 | 17 | 4.8 | 12.9 | 0.00 | 0.00 | 0.00 | 50 | 1014.1 |
| 20260505034058 | 4 | 25 | 4.8 | 16.1 | 0.00 | 0.00 | 0.00 | 49 | 1014.1 |
| 20260505033658 | 4 | 5 | 6.4 | 16.1 | 0.00 | 0.00 | 0.00 | 49 | 1014.1 |
| 20260505033112 | 4 | 5 | 8.0 | 20.9 | 0.00 | 0.00 | 0.00 | 49 | 1014.0 |
| 20260505032554 | 4 | 5 | 6.4 | 20.9 | 0.00 | 0.00 | 0.00 | 49 | 1014.0 |
| 20260505032054 | 4 | 28 | 6.4 | 16.1 | 0.00 | 0.00 | 0.00 | 49 | 1013.9 |
| 20260505031553 | 4 | 23 | 6.4 | 16.1 | 0.00 | 0.00 | 0.00 | 49 | 1013.6 |
| 20260505031055 | 4 | 11 | 4.8 | 17.7 | 0.00 | 0.00 | 0.00 | 49 | 1013.6 |
| 20260505030553 | 5 | 28 | 4.8 | 17.7 | 0.00 | 0.00 | 0.00 | 48 | 1013.5 |
| 20260505030052 | 5 | 5 | 6.4 | 14.5 | 0.00 | 0.00 | 0.00 | 48 | 1013.5 |
| 20260505025549 | 5 | 5 | 6.4 | 14.5 | 0.00 | 0.00 | 0.00 | 48 | 1013.4 |
| 20260505025048 | 5 | 350 | 8.0 | 14.5 | 0.00 | 0.00 | 0.00 | 48 | 1013.3 |
| 20260505024547 | 5 | 355 | 6.4 | 14.5 | 0.00 | 0.00 | 0.00 | 47 | 1013.3 |
| 20260505024046 | 5 | 360 | 6.4 | 14.5 | 0.00 | 0.00 | 0.00 | 47 | 1013.1 |
| 20260505023647 | 5 | 360 | 6.4 | 12.9 | 0.00 | 0.00 | 0.00 | 47 | 1013.1 |
| 20260505023059 | 5 | 355 | 6.4 | 16.1 | 0.00 | 0.00 | 0.00 | 47 | 1013.0 |
| 20260505022551 | 6 | 25 | 8.0 | 16.1 | 0.00 | 0.00 | 0.00 | 46 | 1012.9 |
| 20260505022050 | 6 | 360 | 8.0 | 14.5 | 0.00 | 0.00 | 0.00 | 46 | 1012.9 |
| 20260505021546 | 6 | 12 | 6.4 | 12.9 | 0.00 | 0.00 | 0.00 | 46 | 1012.6 |
| 20260505021046 | 6 | 5 | 6.4 | 12.9 | 0.00 | 0.00 | 0.00 | 46 | 1012.7 |
| 20260505020545 | 6 | 5 | 4.8 | 19.3 | 0.00 | 0.00 | 0.00 | 46 | 1012.6 |
| 20260505020050 | 6 | 360 | 8.0 | 19.3 | 0.00 | 0.00 | 0.00 | 45 | 1012.6 |
| 20260505015545 | 6 | 360 | 9.7 | 16.1 | 0.00 | 0.00 | 0.00 | 45 | 1012.4 |
| 20260505015045 | 6 | 355 | 9.7 | 16.1 | 0.00 | 0.00 | 0.00 | 45 | 1012.3 |
| 20260505014545 | 6 | 5 | 6.4 | 17.7 | 0.00 | 0.00 | 0.00 | 45 | 1012.2 |
| 20260505014044 | 6 | 5 | 8.0 | 17.7 | 0.00 | 0.00 | 0.00 | 44 | 1012.2 |
| 20260505013643 | 6 | 350 | 8.0 | 17.7 | 0.00 | 0.00 | 0.00 | 44 | 1012.1 |
| 20260505013039 | 7 | 360 | 8.0 | 17.7 | 0.00 | 0.00 | 0.00 | 43 | 1012.0 |
| 20260505012539 | 7 | 355 | 6.4 | 12.9 | 0.00 | 0.00 | 0.00 | 44 | 1011.9 |
| 20260505012039 | 7 | 304 | 6.4 | 14.5 | 0.00 | 0.00 | 0.00 | 43 | 1011.8 |
| 20260505011539 | 7 | 24 | 6.4 | 22.5 | 0.00 | 0.00 | 0.00 | 43 | 1011.7 |
| 20260505011037 | 7 | 182 | 9.7 | 22.5 | 0.00 | 0.00 | 0.00 | 42 | 1011.5 |
| 20260505010536 | 7 | 5 | 8.0 | 17.7 | 0.00 | 0.00 | 0.00 | 42 | 1011.7 |
| 20260505010041 | 7 | 331 | 3.2 | 16.1 | 0.00 | 0.00 | 0.00 | 41 | 1011.6 |
| 20260505005536 | 7 | 5 | 4.8 | 16.1 | 0.00 | 0.00 | 0.00 | 41 | 1011.7 |
| 20260505005036 | 7 | 29 | 4.8 | 16.1 | 0.00 | 0.00 | 0.00 | 42 | 1011.4 |
| 20260505004544 | 8 | 274 | 6.4 | 22.5 | 0.00 | 0.00 | 0.00 | 41 | 1011.5 |
| 20260505004033 | 8 | 319 | 4.8 | 24.1 | 0.00 | 0.00 | 0.00 | 41 | 1011.4 |
| 20260505003534 | 8 | 315 | 6.4 | 19.3 | 0.00 | 0.00 | 0.00 | 39 | 1011.3 |
| 20260505003039 | 8 | 277 | 6.4 | 19.3 | 0.00 | 0.00 | 0.00 | 39 | 1011.3 |
| 20260505002537 | 9 | 11 | 9.7 | 24.1 | 0.00 | 0.00 | 0.00 | 39 | 1011.2 |
| 20260505002036 | 9 | 15 | 14.5 | 24.1 | 0.00 | 0.00 | 0.00 | 37 | 1011.1 |
| 20260505001536 | 10 | 22 | 11.3 | 20.9 | 0.00 | 0.00 | 0.00 | 38 | 1011.0 |
| 20260505001035 | 10 | 336 | 8.0 | 27.4 | 0.00 | 0.00 | 0.00 | 39 | 1010.9 |
| 20260505000539 | 9 | 26 | 14.5 | 27.4 | 0.00 | 0.00 | 0.00 | 40 | 1010.9 |
| 20260505000037 | 9 | 5 | 11.3 | 25.7 | 0.00 | 0.00 | 0.00 | 39 | 1011.0 |
| 20260504235535 | 9 | 360 | 8.0 | 24.1 | 0.00 | 0.00 | 0.00 | 42 | 1011.0 |
| 20260504235034 | 8 | 360 | 8.0 | 24.1 | 0.00 | 0.00 | 0.00 | 41 | 1010.9 |
| 20260504234550 | 8 | 355 | 4.8 | 24.1 | 0.00 | 0.00 | 0.00 | 41 | 1010.7 |
| 20260504234034 | 9 | 325 | 4.8 | 17.7 | 0.00 | 0.00 | 0.00 | 40 | 1010.8 |
| 20260504233635 | 10 | 360 | 6.4 | 22.5 | 0.00 | 0.00 | 0.00 | 39 | 1010.7 |
| 20260504233031 | 10 | 349 | 4.8 | 22.5 | 0.00 | 0.00 | 0.00 | 39 | 1010.9 |
| 20260504232529 | 10 | 11 | 9.7 | 24.1 | 0.00 | 0.00 | 0.00 | 39 | 1010.5 |
| 20260504232029 | 10 | 355 | 8.0 | 24.1 | 0.00 | 0.00 | 0.00 | 40 | 1010.5 |
| 20260504231539 | 10 | 299 | 9.7 | 30.6 | 0.00 | 0.00 | 0.00 | 40 | 1010.6 |
| 20260504231030 | 10 | 321 | 16.1 | 30.6 | 0.00 | 0.00 | 0.00 | 39 | 1010.6 |
| 20260504230528 | 11 | 293 | 9.7 | 22.5 | 0.00 | 0.00 | 0.00 | 39 | 1010.5 |
| 20260504230028 | 11 | 309 | 11.3 | 22.5 | 0.00 | 0.00 | 0.00 | 37 | 1010.4 |
| 20260504225528 | 11 | 5 | 9.7 | 19.3 | 0.00 | 0.00 | 0.00 | 39 | 1010.5 |
| 20260504225031 | 11 | 22 | 8.0 | 20.9 | 0.00 | 0.00 | 0.00 | 40 | 1010.4 |
| 20260504224529 | 11 | 304 | 9.7 | 22.5 | 0.00 | 0.00 | 0.00 | 38 | 1010.3 |
| 20260504224026 | 12 | 9 | 12.9 | 22.5 | 0.00 | 0.00 | 0.00 | 37 | 1010.2 |
| 20260504223626 | 11 | 35 | 11.3 | 24.1 | 0.00 | 0.00 | 0.00 | 38 | 1010.3 |
| 20260504223031 | 11 | 33 | 9.7 | 24.1 | 0.00 | 0.00 | 0.00 | 39 | 1010.3 |
| 20260504222530 | 11 | 349 | 9.7 | 20.9 | 0.00 | 0.00 | 0.00 | 40 | 1010.2 |
| 20260504222029 | 10 | 21 | 8.0 | 29.0 | 0.00 | 0.00 | 0.00 | 38 | 1010.2 |
| 20260504221529 | 11 | 11 | 11.3 | 29.0 | 0.00 | 0.00 | 0.00 | 38 | 1010.2 |
| 20260504221031 | 11 | 313 | 8.0 | 32.2 | 0.00 | 0.00 | 0.00 | 39 | 1010.2 |
| 20260504220529 | 11 | 296 | 16.1 | 32.2 | 0.00 | 0.00 | 0.00 | 37 | 1010.1 |
| 20260504220029 | 11 | 302 | 12.9 | 30.6 | 0.00 | 0.00 | 0.00 | 38 | 1010.1 |
| 20260504215529 | 11 | 293 | 11.3 | 30.6 | 0.00 | 0.00 | 0.00 | 38 | 1009.9 |
| 20260504215028 | 11 | 316 | 14.5 | 30.6 | 0.00 | 0.00 | 0.00 | 39 | 1010.1 |
| 20260504214535 | 11 | 330 | 14.5 | 25.7 | 0.00 | 0.00 | 0.00 | 38 | 1010.0 |
| 20260504214029 | 11 | 324 | 12.9 | 27.4 | 0.00 | 0.00 | 0.00 | 38 | 1010.1 |
| 20260504213629 | 11 | 312 | 14.5 | 33.8 | 0.00 | 0.00 | 0.00 | 38 | 1010.0 |
| 20260504213029 | 11 | 319 | 14.5 | 33.8 | 0.00 | 0.00 | 0.00 | 38 | 1010.1 |
| 20260504212528 | 11 | 20 | 11.3 | 37.0 | 0.00 | 0.00 | 0.00 | 38 | 1010.2 |
| 20260504212025 | 11 | 318 | 14.5 | 35.4 | 0.00 | 0.00 | 0.00 | 39 | 1010.1 |
| 20260504211525 | 11 | 298 | 12.9 | 30.6 | 0.00 | 0.00 | 0.00 | 38 | 1010.0 |
| 20260504211025 | 11 | 336 | 16.1 | 29.0 | 0.00 | 0.00 | 0.00 | 38 | 1010.1 |
| 20260504210525 | 11 | 40 | 8.0 | 27.4 | 0.00 | 0.00 | 0.00 | 39 | 1010.1 |
| 20260504210025 | 11 | 271 | 14.5 | 33.8 | 0.00 | 0.00 | 0.00 | 37 | 1010.1 |
| 20260504205529 | 11 | 345 | 17.7 | 33.8 | 0.00 | 0.00 | 0.00 | 38 | 1010.2 |
| 20260504205024 | 11 | 9 | 9.7 | 41.8 | 0.00 | 0.00 | 0.00 | 39 | 1010.0 |
| 20260504204551 | 11 | 305 | 17.7 | 41.8 | 0.00 | 0.00 | 0.00 | 39 | 1010.1 |
| 20260504204025 | 11 | 321 | 14.5 | 32.2 | 0.00 | 0.00 | 0.00 | 39 | 1010.1 |
| 20260504203624 | 11 | 323 | 14.5 | 40.2 | 0.00 | 0.00 | 0.00 | 39 | 1010.0 |
| 20260504203028 | 11 | 284 | 16.1 | 40.2 | 0.00 | 0.00 | 0.00 | 39 | 1010.0 |
| 20260504202523 | 11 | 326 | 17.7 | 32.2 | 0.00 | 0.00 | 0.00 | 39 | 1010.1 |
| 20260504202022 | 11 | 332 | 16.1 | 27.4 | 0.00 | 0.00 | 0.00 | 39 | 1010.0 |
| 20260504201522 | 11 | 334 | 14.5 | 25.7 | 0.00 | 0.00 | 0.00 | 37 | 1010.0 |
| 20260504201020 | 11 | 308 | 8.0 | 25.7 | 0.00 | 0.00 | 0.00 | 39 | 1010.0 |
| 20260504200521 | 11 | 304 | 11.3 | 30.6 | 0.00 | 0.00 | 0.00 | 40 | 1010.0 |
| 20260504200028 | 11 | 292 | 14.5 | 30.6 | 0.00 | 0.00 | 0.00 | 38 | 1010.1 |
| 20260504195519 | 11 | 302 | 12.9 | 30.6 | 0.00 | 0.00 | 0.00 | 41 | 1010.0 |
| 20260504195020 | 11 | 347 | 11.3 | 24.1 | 0.00 | 0.00 | 0.00 | 41 | 1010.1 |
| 20260504194521 | 11 | 319 | 9.7 | 32.2 | 0.00 | 0.00 | 0.00 | 42 | 1010.0 |
| 20260504194023 | 10 | 317 | 16.1 | 32.2 | 0.00 | 0.00 | 0.00 | 40 | 1010.1 |
| 20260504193620 | 11 | 341 | 12.9 | 27.4 | 0.00 | 0.00 | 0.00 | 41 | 1010.0 |
| 20260504193025 | 11 | 287 | 11.3 | 27.4 | 0.00 | 0.00 | 0.00 | 41 | 1010.0 |
| 20260504192526 | 10 | 319 | 12.9 | 27.4 | 0.00 | 0.00 | 0.00 | 42 | 1010.0 |
| 20260504192024 | 10 | 333 | 8.0 | 32.2 | 0.00 | 0.00 | 0.00 | 42 | 1010.0 |
| 20260504191523 | 11 | 332 | 11.3 | 32.2 | 0.00 | 0.00 | 0.00 | 41 | 1010.0 |
| 20260504191024 | 11 | 321 | 12.9 | 27.4 | 0.00 | 0.00 | 0.00 | 40 | 1009.9 |
| 20260504190523 | 11 | 328 | 11.3 | 27.4 | 0.00 | 0.00 | 0.00 | 42 | 1010.0 |
| 20260504190023 | 11 | 232 | 9.7 | 29.0 | 0.00 | 0.00 | 0.00 | 41 | 1010.0 |
| 20260504185522 | 10 | 316 | 14.5 | 29.0 | 0.00 | 0.00 | 0.00 | 44 | 1010.0 |
| 20260504185022 | 10 | 269 | 9.7 | 24.1 | 0.00 | 0.00 | 0.00 | 45 | 1010.1 |
| 20260504184522 | 10 | 18 | 8.0 | 27.4 | 0.00 | 0.00 | 0.00 | 44 | 1009.9 |
| 20260504184024 | 9 | 360 | 9.7 | 32.2 | 0.00 | 0.00 | 0.00 | 46 | 1009.9 |
| 20260504183623 | 9 | 346 | 9.7 | 25.7 | 0.00 | 0.00 | 0.00 | 44 | 1010.1 |
| 20260504183017 | 9 | 14 | 12.9 | 25.7 | 0.00 | 0.00 | 0.00 | 43 | 1009.9 |
| 20260504182519 | 9 | 322 | 9.7 | 32.2 | 0.00 | 0.00 | 0.00 | 44 | 1009.8 |
| 20260504182016 | 9 | 308 | 16.1 | 32.2 | 0.00 | 0.00 | 0.00 | 43 | 1009.9 |
| 20260504181516 | 9 | 313 | 8.0 | 29.0 | 0.00 | 0.00 | 0.00 | 44 | 1009.9 |
| 20260504181017 | 9 | 327 | 11.3 | 29.0 | 0.00 | 0.00 | 0.00 | 44 | 1009.8 |
| 20260504180516 | 10 | 315 | 12.9 | 40.2 | 0.00 | 0.00 | 0.00 | 43 | 1009.9 |
| 20260504180017 | 10 | 342 | 16.1 | 40.2 | 0.00 | 0.00 | 0.00 | 41 | 1009.9 |
| 20260504175516 | 10 | 281 | 11.3 | 25.7 | 0.00 | 0.00 | 0.00 | 43 | 1009.6 |
| 20260504175016 | 10 | 15 | 11.3 | 29.0 | 0.00 | 0.00 | 0.00 | 44 | 1009.6 |
| 20260504174515 | 10 | 293 | 12.9 | 29.0 | 0.00 | 0.00 | 0.00 | 44 | 1009.8 |
| 20260504174016 | 10 | 320 | 16.1 | 29.0 | 0.00 | 0.00 | 0.00 | 43 | 1009.8 |
| 20260504173516 | 10 | 316 | 11.3 | 25.7 | 0.00 | 0.00 | 0.00 | 43 | 1009.7 |
| 20260504173018 | 10 | 265 | 11.3 | 25.7 | 0.00 | 0.00 | 0.00 | 44 | 1009.7 |
| 20260504172518 | 10 | 305 | 16.1 | 25.7 | 0.00 | 0.00 | 0.00 | 43 | 1009.7 |
| 20260504172020 | 10 | 298 | 14.5 | 32.2 | 0.00 | 0.00 | 0.00 | 43 | 1009.7 |
| 20260504171534 | 10 | 302 | 17.7 | 40.2 | 0.00 | 0.00 | 0.00 | 42 | 1009.6 |
| 20260504171018 | 10 | 306 | 16.1 | 40.2 | 0.00 | 0.00 | 0.00 | 43 | 1009.6 |
| 20260504170518 | 11 | 305 | 16.1 | 30.6 | 0.00 | 0.00 | 0.00 | 41 | 1009.7 |
| 20260504151011 | 10 | 305 | 12.9 | 32.2 | 0.00 | 0.00 | 0.00 | 47 | 1009.1 |
| 20260504150512 | 9 | 310 | 12.9 | 32.2 | 0.00 | 0.00 | 0.00 | 47 | 1009.2 |
| 20260504141009 | 8 | 314 | 4.8 | 16.1 | 0.00 | 0.00 | 0.00 | 54 | 1009.1 |
| 20260504140509 | 8 | 355 | 3.2 | 16.1 | 0.00 | 0.00 | 0.00 | 54 | 1009.3 |